Location: Unspecified
(0.0000°N, 0.0000°E)
Time: 11:40:39
(UTC+00:00)

Oscar 15 - Pass Details

Date: 12 June 2023
Orbit: 780 x 795 km, 98.9° (Epoch: 21 September)

Event Time Altitude Azimuth Distance (km) Brightness Sun altitude
Rises 18:54:19 0° 175° (S) 3,262 11.5 -12.5°
Reaches altitude 10° 18:56:40 10° 179° (S) 2,332 10.8 -13.0°
Maximum altitude 19:01:42 57° 257° (WSW) 913 9.2 -14.2°
Drops below altitude 10° 19:06:44 10° 335° (NNW) 2,327 11.7 -15.3°
Sets 19:09:05 0° 340° (NNW) 3,254 12.5 -15.9°
